Year,Month,Day,Hour,Minute,Value (Times are PST for temperature in C)
2020,07,28,00,00,19.40
2020,07,28,00,01,19.40
2020,07,28,00,02,19.30
2020,07,28,00,03,19.30
2020,07,28,00,04,19.30
2020,07,28,00,05,19.30
2020,07,28,00,06,19.30
2020,07,28,00,07,19.30
2020,07,28,00,08,19.20
2020,07,28,00,09,19.20
2020,07,28,00,10,19.20
2020,07,28,00,11,19.20
2020,07,28,00,12,19.10
2020,07,28,00,13,19.10
2020,07,28,00,14,19.10
2020,07,28,00,15,19.10
2020,07,28,00,16,19.10
2020,07,28,00,17,19.00
2020,07,28,00,18,19.00
2020,07,28,00,19,19.00
2020,07,28,00,20,18.90
2020,07,28,00,21,18.90
2020,07,28,00,22,18.90
2020,07,28,00,23,18.90
2020,07,28,00,24,18.90
2020,07,28,00,25,18.90
2020,07,28,00,26,18.90
2020,07,28,00,27,18.90
2020,07,28,00,28,18.90
2020,07,28,00,29,18.90
2020,07,28,00,30,18.90
2020,07,28,00,31,18.90
2020,07,28,00,32,18.80
2020,07,28,00,33,18.80
2020,07,28,00,34,18.80
2020,07,28,00,35,18.80
2020,07,28,00,36,18.80
2020,07,28,00,37,18.80
2020,07,28,00,38,18.80
2020,07,28,00,39,18.80
2020,07,28,00,40,18.80
2020,07,28,00,41,18.80
2020,07,28,00,42,18.80
2020,07,28,00,43,18.80
2020,07,28,00,44,18.80
2020,07,28,00,45,18.80
2020,07,28,00,46,18.80
2020,07,28,00,47,18.80
2020,07,28,00,48,18.80
2020,07,28,00,49,18.70
2020,07,28,00,50,18.70
2020,07,28,00,51,18.70
2020,07,28,00,52,18.70
2020,07,28,00,53,18.60
2020,07,28,00,54,18.60
2020,07,28,00,55,18.60
2020,07,28,00,56,18.60
2020,07,28,00,57,18.60
2020,07,28,00,58,18.60
2020,07,28,00,59,18.60
2020,07,28,01,00,18.60
2020,07,28,01,01,18.50
2020,07,28,01,02,18.50
2020,07,28,01,03,18.40
2020,07,28,01,04,18.40
2020,07,28,01,05,18.40
2020,07,28,01,06,18.40
2020,07,28,01,07,18.30
2020,07,28,01,08,18.30
2020,07,28,01,09,18.30
2020,07,28,01,10,18.30
2020,07,28,01,11,18.30
2020,07,28,01,12,18.30
2020,07,28,01,13,18.30
2020,07,28,01,14,18.30
2020,07,28,01,15,18.30
2020,07,28,01,16,18.30
2020,07,28,01,17,18.30
2020,07,28,01,18,18.30
2020,07,28,01,19,18.40
2020,07,28,01,20,18.40
2020,07,28,01,21,18.40
2020,07,28,01,22,18.40
2020,07,28,01,23,18.40
2020,07,28,01,24,18.30
2020,07,28,01,25,18.30
2020,07,28,01,26,18.30
2020,07,28,01,27,18.30
2020,07,28,01,28,18.30
2020,07,28,01,29,18.30
2020,07,28,01,30,18.20
2020,07,28,01,31,18.20
2020,07,28,01,32,18.20
2020,07,28,01,33,18.20
2020,07,28,01,34,18.20
2020,07,28,01,35,18.10
2020,07,28,01,36,18.10
2020,07,28,01,37,18.10
2020,07,28,01,38,18.10
2020,07,28,01,39,18.00
2020,07,28,01,40,18.00
2020,07,28,01,41,17.90
2020,07,28,01,42,17.90
2020,07,28,01,43,17.90
2020,07,28,01,44,17.90
2020,07,28,01,45,17.90
2020,07,28,01,46,17.90
2020,07,28,01,47,17.80
2020,07,28,01,48,17.80
2020,07,28,01,49,17.80
2020,07,28,01,50,17.80
2020,07,28,01,51,17.70
2020,07,28,01,52,17.70
2020,07,28,01,53,17.70
2020,07,28,01,54,17.60
2020,07,28,01,55,17.60
2020,07,28,01,56,17.60
2020,07,28,01,57,17.50
2020,07,28,01,58,17.50
2020,07,28,01,59,17.40
2020,07,28,02,00,17.40
2020,07,28,02,01,17.30
2020,07,28,02,02,17.30
2020,07,28,02,03,17.20
2020,07,28,02,04,17.20
2020,07,28,02,05,17.20
2020,07,28,02,06,17.20
2020,07,28,02,07,17.10
2020,07,28,02,08,17.10
2020,07,28,02,09,17.10
2020,07,28,02,10,17.00
2020,07,28,02,11,17.10
2020,07,28,02,12,17.00
2020,07,28,02,13,17.00
2020,07,28,02,14,17.10
2020,07,28,02,15,17.10
2020,07,28,02,16,17.10
2020,07,28,02,17,17.10
2020,07,28,02,18,17.10
2020,07,28,02,19,17.10
2020,07,28,02,20,17.10
2020,07,28,02,21,17.10
2020,07,28,02,22,17.10
2020,07,28,02,23,17.10
2020,07,28,02,24,17.10
2020,07,28,02,25,17.10
2020,07,28,02,26,17.10
2020,07,28,02,27,17.10
2020,07,28,02,28,17.10
2020,07,28,02,29,17.10
2020,07,28,02,30,17.10
2020,07,28,02,31,17.10
2020,07,28,02,32,17.10
2020,07,28,02,33,17.10
2020,07,28,02,34,17.10
2020,07,28,02,35,17.10
2020,07,28,02,36,17.10
2020,07,28,02,37,17.10
2020,07,28,02,38,17.00
2020,07,28,02,39,17.00
2020,07,28,02,40,17.00
2020,07,28,02,41,17.00
2020,07,28,02,42,16.90
2020,07,28,02,43,16.90
2020,07,28,02,44,16.90
2020,07,28,02,45,16.80
2020,07,28,02,46,16.80
2020,07,28,02,47,16.80
2020,07,28,02,48,16.80
2020,07,28,02,49,16.80
2020,07,28,02,50,16.80
2020,07,28,02,51,16.80
2020,07,28,02,52,16.80
2020,07,28,02,53,16.80
2020,07,28,02,54,16.70
2020,07,28,02,55,16.70
2020,07,28,02,56,16.70
2020,07,28,02,57,16.70
2020,07,28,02,58,16.70
2020,07,28,02,59,16.70
2020,07,28,03,00,16.70
2020,07,28,03,01,16.60
2020,07,28,03,02,16.60
2020,07,28,03,03,16.60
2020,07,28,03,04,16.60
2020,07,28,03,05,16.60
2020,07,28,03,06,16.50
2020,07,28,03,07,16.50
2020,07,28,03,08,16.50
2020,07,28,03,09,16.40
2020,07,28,03,10,16.40
2020,07,28,03,11,16.40
2020,07,28,03,12,16.40
2020,07,28,03,13,16.40
2020,07,28,03,14,16.40
2020,07,28,03,15,16.30
2020,07,28,03,16,16.30
2020,07,28,03,17,16.30
2020,07,28,03,18,16.30
2020,07,28,03,19,16.30
2020,07,28,03,20,16.30
2020,07,28,03,21,16.30
2020,07,28,03,22,16.20
2020,07,28,03,23,16.20
2020,07,28,03,24,16.20
2020,07,28,03,25,16.20
2020,07,28,03,26,16.20
2020,07,28,03,27,16.20
2020,07,28,03,28,16.20
2020,07,28,03,29,16.20
2020,07,28,03,30,16.20
2020,07,28,03,31,16.20
2020,07,28,03,32,16.20
2020,07,28,03,33,16.20
2020,07,28,03,34,16.20
2020,07,28,03,35,16.20
2020,07,28,03,36,16.20
2020,07,28,03,37,16.20
2020,07,28,03,38,16.20
2020,07,28,03,39,16.20
2020,07,28,03,40,16.20
2020,07,28,03,41,16.20
2020,07,28,03,42,16.20
2020,07,28,03,43,16.20
2020,07,28,03,44,16.20
2020,07,28,03,45,16.20
2020,07,28,03,46,16.20
2020,07,28,03,47,16.20
2020,07,28,03,48,16.20
2020,07,28,03,49,16.20
2020,07,28,03,50,16.20
2020,07,28,03,51,16.20
2020,07,28,03,52,16.20
2020,07,28,03,53,16.20
2020,07,28,03,54,16.20
2020,07,28,03,55,16.20
2020,07,28,03,56,16.20
2020,07,28,03,57,16.20
2020,07,28,03,58,16.20
2020,07,28,03,59,16.20
2020,07,28,04,00,16.20
2020,07,28,04,01,16.20
2020,07,28,04,02,16.20
2020,07,28,04,03,16.20
2020,07,28,04,04,16.20
2020,07,28,04,05,16.20
2020,07,28,04,06,16.20
2020,07,28,04,07,16.20
2020,07,28,04,08,16.20
2020,07,28,04,09,16.10
2020,07,28,04,10,16.10
2020,07,28,04,11,16.10
2020,07,28,04,12,16.10
2020,07,28,04,13,16.10
2020,07,28,04,14,16.00
2020,07,28,04,15,16.00
2020,07,28,04,16,16.00
2020,07,28,04,17,16.00
2020,07,28,04,18,15.90
2020,07,28,04,19,15.90
2020,07,28,04,20,15.90
2020,07,28,04,21,15.90
2020,07,28,04,22,15.90
2020,07,28,04,23,15.90
2020,07,28,04,24,15.80
2020,07,28,04,25,15.80
2020,07,28,04,26,15.80
2020,07,28,04,27,15.80
2020,07,28,04,28,15.80
2020,07,28,04,29,15.80
2020,07,28,04,30,15.80
2020,07,28,04,31,15.80
2020,07,28,04,32,15.80
2020,07,28,04,33,15.80
2020,07,28,04,34,15.80
2020,07,28,04,35,15.70
2020,07,28,04,36,15.70
2020,07,28,04,37,15.70
2020,07,28,04,38,15.70
2020,07,28,04,39,15.70
2020,07,28,04,40,15.70
2020,07,28,04,41,15.70
2020,07,28,04,42,15.70
2020,07,28,04,43,15.70
2020,07,28,04,44,15.60
2020,07,28,04,45,15.60
2020,07,28,04,46,15.60
2020,07,28,04,47,15.60
2020,07,28,04,48,15.60
2020,07,28,04,49,15.60
2020,07,28,04,50,15.60
2020,07,28,04,51,15.50
2020,07,28,04,52,15.50
2020,07,28,04,53,15.50
2020,07,28,04,54,15.40
2020,07,28,04,55,15.40
2020,07,28,04,56,15.40
2020,07,28,04,57,15.40
2020,07,28,04,58,15.40
2020,07,28,04,59,15.40
2020,07,28,05,00,15.30
2020,07,28,05,01,15.30
2020,07,28,05,02,15.30
2020,07,28,05,03,15.30
2020,07,28,05,04,15.30
2020,07,28,05,05,15.30
2020,07,28,05,06,15.30
2020,07,28,05,07,15.30
2020,07,28,05,08,15.30
2020,07,28,05,09,15.30
2020,07,28,05,10,15.30
2020,07,28,05,11,15.30
2020,07,28,05,12,15.30
2020,07,28,05,13,15.30
2020,07,28,05,14,15.30
2020,07,28,05,15,15.30
2020,07,28,05,16,15.30
2020,07,28,05,17,15.30
2020,07,28,05,18,15.30
2020,07,28,05,19,15.30
2020,07,28,05,20,15.30
2020,07,28,05,21,15.30
2020,07,28,05,22,15.30
2020,07,28,05,23,15.20
2020,07,28,05,24,15.20
2020,07,28,05,25,15.20
2020,07,28,05,26,15.20
2020,07,28,05,27,15.20
2020,07,28,05,28,15.20
2020,07,28,05,29,15.20
2020,07,28,05,30,15.20
2020,07,28,05,31,15.20
2020,07,28,05,32,15.10
2020,07,28,05,33,15.10
2020,07,28,05,34,15.10
2020,07,28,05,35,15.10
2020,07,28,05,36,15.10
2020,07,28,05,37,15.10
2020,07,28,05,38,15.10
2020,07,28,05,39,15.10
2020,07,28,05,40,15.10
2020,07,28,05,41,15.10
2020,07,28,05,42,15.10
2020,07,28,05,43,15.10
2020,07,28,05,44,15.10
2020,07,28,05,45,15.10
2020,07,28,05,46,15.10
2020,07,28,05,47,15.10
2020,07,28,05,48,15.10
2020,07,28,05,49,15.10
2020,07,28,05,50,15.10
2020,07,28,05,51,15.10
2020,07,28,05,52,15.10
2020,07,28,05,53,15.10
2020,07,28,05,54,15.10
2020,07,28,05,55,15.00
2020,07,28,05,56,15.00
2020,07,28,05,57,15.00
2020,07,28,05,58,15.00
2020,07,28,05,59,15.00
2020,07,28,06,00,15.00
2020,07,28,06,01,15.00
2020,07,28,06,02,15.00
2020,07,28,06,03,15.10
2020,07,28,06,04,15.10
2020,07,28,06,05,15.00
2020,07,28,06,06,15.10
2020,07,28,06,07,15.10
2020,07,28,06,08,15.10
2020,07,28,06,09,15.10
2020,07,28,06,10,15.10
2020,07,28,06,11,15.10
2020,07,28,06,12,15.10
2020,07,28,06,13,15.10
2020,07,28,06,14,15.10
2020,07,28,06,15,15.10
2020,07,28,06,16,15.10
2020,07,28,06,17,15.10
2020,07,28,06,18,15.10
2020,07,28,06,19,15.10
2020,07,28,06,20,15.10
2020,07,28,06,21,15.10
2020,07,28,06,22,15.00
2020,07,28,06,23,15.00
2020,07,28,06,24,15.00
2020,07,28,06,25,15.00
2020,07,28,06,26,15.00
2020,07,28,06,27,15.00
2020,07,28,06,28,15.00
2020,07,28,06,29,15.00
2020,07,28,06,30,15.00
2020,07,28,06,31,15.10
2020,07,28,06,32,15.10
2020,07,28,06,33,15.10
2020,07,28,06,34,15.10
2020,07,28,06,35,15.10
2020,07,28,06,36,15.10
2020,07,28,06,37,15.20
2020,07,28,06,38,15.20
2020,07,28,06,39,15.20
2020,07,28,06,40,15.20
2020,07,28,06,41,15.30
2020,07,28,06,42,15.30
2020,07,28,06,43,15.30
2020,07,28,06,44,15.40
2020,07,28,06,45,15.40
2020,07,28,06,46,15.40
2020,07,28,06,47,15.40
2020,07,28,06,48,15.50
2020,07,28,06,49,15.50
2020,07,28,06,50,15.60
2020,07,28,06,51,15.60
2020,07,28,06,52,15.70
2020,07,28,06,53,15.70
2020,07,28,06,54,15.70
2020,07,28,06,55,15.70
2020,07,28,06,56,15.70
2020,07,28,06,57,15.80
2020,07,28,06,58,15.80
2020,07,28,06,59,15.80
2020,07,28,07,00,15.80
2020,07,28,07,01,15.90
2020,07,28,07,02,15.90
2020,07,28,07,03,15.90
2020,07,28,07,04,16.00
2020,07,28,07,05,16.00
2020,07,28,07,06,16.10
2020,07,28,07,07,16.10
2020,07,28,07,08,16.10
2020,07,28,07,09,16.10
2020,07,28,07,10,16.20
2020,07,28,07,11,16.20
2020,07,28,07,12,16.20
2020,07,28,07,13,16.30
2020,07,28,07,14,16.30
2020,07,28,07,15,16.30
2020,07,28,07,16,16.30
2020,07,28,07,17,16.40
2020,07,28,07,18,16.40
2020,07,28,07,19,16.40
2020,07,28,07,20,16.40
2020,07,28,07,21,16.40
2020,07,28,07,22,16.40
2020,07,28,07,23,16.40
2020,07,28,07,24,16.40
2020,07,28,07,25,16.50
2020,07,28,07,26,16.50
2020,07,28,07,27,16.50
2020,07,28,07,28,16.50
2020,07,28,07,29,16.60
2020,07,28,07,30,16.60
2020,07,28,07,31,16.60
2020,07,28,07,32,16.60
2020,07,28,07,33,16.60
2020,07,28,07,34,16.70
2020,07,28,07,35,16.70
2020,07,28,07,36,16.70
2020,07,28,07,37,16.70
2020,07,28,07,38,16.70
2020,07,28,07,39,16.80
2020,07,28,07,40,16.70
2020,07,28,07,41,16.70
2020,07,28,07,42,16.70
2020,07,28,07,43,16.80
2020,07,28,07,44,16.80
2020,07,28,07,45,16.80
2020,07,28,07,46,16.80
2020,07,28,07,47,16.80
2020,07,28,07,48,16.80
2020,07,28,07,49,16.80
2020,07,28,07,50,16.90
2020,07,28,07,51,16.90
2020,07,28,07,52,16.90
2020,07,28,07,53,16.90
2020,07,28,07,54,16.90
2020,07,28,07,55,17.00
2020,07,28,07,56,17.10
2020,07,28,07,57,17.10
2020,07,28,07,58,17.10
2020,07,28,07,59,17.10
2020,07,28,08,00,17.10
2020,07,28,08,01,17.10
2020,07,28,08,02,17.20
2020,07,28,08,03,17.20
2020,07,28,08,04,17.30
2020,07,28,08,05,17.30
2020,07,28,08,06,17.40
2020,07,28,08,07,17.50
2020,07,28,08,08,17.60
2020,07,28,08,09,17.60
2020,07,28,08,10,17.60
2020,07,28,08,11,17.70
2020,07,28,08,12,17.70
2020,07,28,08,13,17.70
2020,07,28,08,14,17.80
2020,07,28,08,15,17.80
2020,07,28,08,16,17.80
2020,07,28,08,17,17.80
2020,07,28,08,18,17.80
2020,07,28,08,19,17.80
2020,07,28,08,20,17.80
2020,07,28,08,21,17.80
2020,07,28,08,22,17.80
2020,07,28,08,23,17.80
2020,07,28,08,24,17.80
2020,07,28,08,25,17.80
2020,07,28,08,26,17.70
2020,07,28,08,27,17.70
2020,07,28,08,28,17.70
2020,07,28,08,29,17.60
2020,07,28,08,30,17.60
2020,07,28,08,31,17.60
2020,07,28,08,32,17.70
2020,07,28,08,33,17.70
2020,07,28,08,34,17.70
2020,07,28,08,35,17.80
2020,07,28,08,36,17.80
2020,07,28,08,37,17.90
2020,07,28,08,38,17.90
2020,07,28,08,39,17.90
2020,07,28,08,40,18.00
2020,07,28,08,41,17.90
2020,07,28,08,42,18.00
2020,07,28,08,43,18.00
2020,07,28,08,44,18.00
2020,07,28,08,45,18.10
2020,07,28,08,46,18.10
2020,07,28,08,47,18.20
2020,07,28,08,48,18.20
2020,07,28,08,49,18.30
2020,07,28,08,50,18.30
2020,07,28,08,51,18.40
2020,07,28,08,52,18.40
2020,07,28,08,53,18.40
2020,07,28,08,54,18.40
2020,07,28,08,55,18.40
2020,07,28,08,56,18.40
2020,07,28,08,57,18.40
2020,07,28,08,58,18.50
2020,07,28,08,59,18.50
2020,07,28,09,00,18.50
2020,07,28,09,01,18.50
2020,07,28,09,02,18.50
2020,07,28,09,03,18.50
2020,07,28,09,04,18.60
2020,07,28,09,05,18.60
2020,07,28,09,06,18.60
2020,07,28,09,07,18.60
2020,07,28,09,08,18.60
2020,07,28,09,09,18.70
2020,07,28,09,10,18.70
2020,07,28,09,11,18.70
2020,07,28,09,12,18.70
2020,07,28,09,13,18.80
2020,07,28,09,14,18.90
2020,07,28,09,15,18.90
2020,07,28,09,16,19.00
2020,07,28,09,17,19.10
2020,07,28,09,18,19.20
2020,07,28,09,19,19.20
2020,07,28,09,20,19.30
2020,07,28,09,21,19.30
2020,07,28,09,22,19.30
2020,07,28,09,23,19.30
2020,07,28,09,24,19.20
2020,07,28,09,25,19.10
2020,07,28,09,26,19.00
2020,07,28,09,27,18.80
2020,07,28,09,28,18.60
2020,07,28,09,29,18.50
2020,07,28,09,30,18.40
2020,07,28,09,31,18.30
2020,07,28,09,32,18.30
2020,07,28,09,33,18.30
2020,07,28,09,34,18.30
2020,07,28,09,35,18.30
2020,07,28,09,36,18.20
2020,07,28,09,37,18.20
2020,07,28,09,38,18.20
2020,07,28,09,39,18.10
2020,07,28,09,40,18.10
2020,07,28,09,41,18.10
2020,07,28,09,42,18.10
2020,07,28,09,43,18.10
2020,07,28,09,44,18.10
2020,07,28,09,45,18.00
2020,07,28,09,46,17.90
2020,07,28,09,47,17.90
2020,07,28,09,48,17.90
2020,07,28,09,49,17.90
2020,07,28,09,50,17.90
2020,07,28,09,51,17.90
2020,07,28,09,52,17.90
2020,07,28,09,53,17.90
2020,07,28,09,54,17.90
2020,07,28,09,55,18.00
2020,07,28,09,56,18.00
2020,07,28,09,57,18.00
2020,07,28,09,58,18.00
2020,07,28,09,59,18.10
2020,07,28,10,00,18.10
2020,07,28,10,01,18.10
2020,07,28,10,02,18.10
2020,07,28,10,03,18.10
2020,07,28,10,04,18.10
2020,07,28,10,05,18.10
2020,07,28,10,06,18.10
2020,07,28,10,07,18.20
2020,07,28,10,08,18.20
2020,07,28,10,09,18.20
2020,07,28,10,10,18.20
2020,07,28,10,11,18.20
2020,07,28,10,12,18.20
2020,07,28,10,13,18.20
2020,07,28,10,14,18.20
2020,07,28,10,15,18.20
2020,07,28,10,16,18.20
2020,07,28,10,17,18.20
2020,07,28,10,18,18.20
2020,07,28,10,19,18.30
2020,07,28,10,20,18.30
2020,07,28,10,21,18.30
2020,07,28,10,22,18.40
2020,07,28,10,23,18.50
2020,07,28,10,24,18.60
2020,07,28,10,25,18.60
2020,07,28,10,26,18.70
2020,07,28,10,27,18.70
2020,07,28,10,28,18.80
2020,07,28,10,29,18.80
2020,07,28,10,30,18.80
2020,07,28,10,31,18.90
2020,07,28,10,32,18.90
2020,07,28,10,33,19.00
2020,07,28,10,34,19.10
2020,07,28,10,35,19.10
2020,07,28,10,36,19.20
2020,07,28,10,37,19.20
2020,07,28,10,38,19.20
2020,07,28,10,39,19.20
2020,07,28,10,40,19.20
2020,07,28,10,41,19.20
2020,07,28,10,42,19.20
2020,07,28,10,43,19.20
2020,07,28,10,44,19.30
2020,07,28,10,45,19.30
2020,07,28,10,46,19.50
2020,07,28,10,47,19.60
2020,07,28,10,48,19.70
2020,07,28,10,49,19.80
2020,07,28,10,50,19.90
2020,07,28,10,51,20.00
2020,07,28,10,52,20.00
2020,07,28,10,53,20.10
2020,07,28,10,54,20.10
2020,07,28,10,55,20.20
2020,07,28,10,56,20.20
2020,07,28,10,57,20.30
2020,07,28,10,58,20.30
2020,07,28,10,59,20.30
2020,07,28,11,00,20.40
2020,07,28,11,01,20.40
2020,07,28,11,02,20.50
2020,07,28,11,03,20.50
2020,07,28,11,04,20.60
2020,07,28,11,05,20.60
2020,07,28,11,06,20.70
2020,07,28,11,07,20.80
2020,07,28,11,08,21.00
2020,07,28,11,09,21.20
2020,07,28,11,10,21.30
2020,07,28,11,11,21.40
2020,07,28,11,12,21.40
2020,07,28,11,13,21.40
2020,07,28,11,14,21.50
2020,07,28,11,15,21.40
2020,07,28,11,16,21.50
2020,07,28,11,17,21.50
2020,07,28,11,18,21.60
2020,07,28,11,19,21.60
2020,07,28,11,20,21.70
2020,07,28,11,21,21.70
2020,07,28,11,22,21.60
2020,07,28,11,23,21.60
2020,07,28,11,24,21.60
2020,07,28,11,25,21.60
2020,07,28,11,26,21.60
2020,07,28,11,27,21.60
2020,07,28,11,28,21.50
2020,07,28,11,29,21.60
2020,07,28,11,30,21.60
2020,07,28,11,31,21.70
2020,07,28,11,32,21.70
2020,07,28,11,33,21.70
2020,07,28,11,34,21.70
2020,07,28,11,35,21.80
2020,07,28,11,36,21.80
2020,07,28,11,37,21.80
2020,07,28,11,38,21.80
2020,07,28,11,39,21.80
2020,07,28,11,40,21.80
2020,07,28,11,41,21.80
2020,07,28,11,42,21.90
2020,07,28,11,43,22.00
2020,07,28,11,44,22.10
2020,07,28,11,45,22.10
2020,07,28,11,46,22.10
2020,07,28,11,47,22.10
2020,07,28,11,48,22.20
2020,07,28,11,49,22.20
2020,07,28,11,50,22.30
2020,07,28,11,51,22.30
2020,07,28,11,52,22.30
2020,07,28,11,53,22.30
2020,07,28,11,54,22.30
2020,07,28,11,55,22.20
2020,07,28,11,56,22.20
2020,07,28,11,57,22.20
2020,07,28,11,58,22.30
2020,07,28,11,59,22.30
2020,07,28,12,00,22.20
2020,07,28,12,01,22.30
2020,07,28,12,02,22.30
2020,07,28,12,03,22.20
2020,07,28,12,04,22.20
2020,07,28,12,05,22.30
2020,07,28,12,06,22.30
2020,07,28,12,07,22.30
2020,07,28,12,08,22.20
2020,07,28,12,09,22.20
2020,07,28,12,10,22.20
2020,07,28,12,11,22.20
2020,07,28,12,12,22.10
2020,07,28,12,13,22.10
2020,07,28,12,14,22.00
2020,07,28,12,15,22.00
2020,07,28,12,16,22.00
2020,07,28,12,17,22.10
2020,07,28,12,18,22.10
2020,07,28,12,19,22.10
2020,07,28,12,20,22.10
2020,07,28,12,21,22.20
2020,07,28,12,22,22.20
2020,07,28,12,23,22.20
2020,07,28,12,24,22.20
2020,07,28,12,25,22.20
2020,07,28,12,26,22.20
2020,07,28,12,27,22.30
2020,07,28,12,28,22.30
2020,07,28,12,29,22.30
2020,07,28,12,30,22.30
2020,07,28,12,31,22.30
2020,07,28,12,32,22.20
2020,07,28,12,33,22.20
2020,07,28,12,34,22.20
2020,07,28,12,35,22.20
2020,07,28,12,36,22.30
2020,07,28,12,37,22.30
2020,07,28,12,38,22.30
2020,07,28,12,39,22.30
2020,07,28,12,40,22.40
2020,07,28,12,41,22.40
2020,07,28,12,42,22.50
2020,07,28,12,43,22.50
2020,07,28,12,44,22.60
2020,07,28,12,45,22.70
2020,07,28,12,46,22.60
2020,07,28,12,47,22.70
2020,07,28,12,48,22.70
2020,07,28,12,49,22.70
2020,07,28,12,50,22.70
2020,07,28,12,51,22.70
2020,07,28,12,52,22.70
2020,07,28,12,53,22.60
2020,07,28,12,54,22.60
2020,07,28,12,55,22.60
2020,07,28,12,56,22.60
2020,07,28,12,57,22.60
2020,07,28,12,58,22.60
2020,07,28,12,59,22.70
2020,07,28,13,00,22.70
2020,07,28,13,01,22.70
2020,07,28,13,02,22.70
2020,07,28,13,03,22.70
2020,07,28,13,04,22.80
2020,07,28,13,05,22.80
2020,07,28,13,06,22.90
2020,07,28,13,07,22.90
2020,07,28,13,08,23.00
2020,07,28,13,09,23.00
2020,07,28,13,10,23.20
2020,07,28,13,11,23.20
2020,07,28,13,12,23.20
2020,07,28,13,13,23.20
2020,07,28,13,14,23.20
2020,07,28,13,15,23.20
2020,07,28,13,16,23.20
2020,07,28,13,17,23.30
2020,07,28,13,18,23.30
2020,07,28,13,19,23.30
2020,07,28,13,20,23.30
2020,07,28,13,21,23.30
2020,07,28,13,22,23.30
2020,07,28,13,23,23.30
2020,07,28,13,24,23.20
2020,07,28,13,25,23.30
2020,07,28,13,26,23.30
2020,07,28,13,27,23.30
2020,07,28,13,28,23.30
2020,07,28,13,29,23.30
2020,07,28,13,30,23.30
2020,07,28,13,31,23.40
2020,07,28,13,32,23.40
2020,07,28,13,33,23.40
2020,07,28,13,34,23.40
2020,07,28,13,35,23.50
2020,07,28,13,36,23.60
2020,07,28,13,37,23.60
2020,07,28,13,38,23.70
2020,07,28,13,39,23.70
2020,07,28,13,40,23.80
2020,07,28,13,41,23.80
2020,07,28,13,42,23.90
2020,07,28,13,43,23.90
2020,07,28,13,44,23.90
2020,07,28,13,45,23.90
2020,07,28,13,46,23.90
2020,07,28,13,47,24.00
2020,07,28,13,48,24.00
2020,07,28,13,49,24.10
2020,07,28,13,50,24.10
2020,07,28,13,51,24.20
2020,07,28,13,52,24.30
2020,07,28,13,53,24.20
2020,07,28,13,54,24.20
2020,07,28,13,55,24.10
2020,07,28,13,56,24.10
2020,07,28,13,57,24.10
2020,07,28,13,58,24.10
2020,07,28,13,59,24.00
2020,07,28,14,00,24.00
2020,07,28,14,01,24.00
2020,07,28,14,02,24.00
2020,07,28,14,03,24.10
2020,07,28,14,04,24.20
2020,07,28,14,05,24.20
2020,07,28,14,06,24.30
2020,07,28,14,07,24.40
2020,07,28,14,08,24.50
2020,07,28,14,09,24.60
2020,07,28,14,10,24.60
2020,07,28,14,11,24.70
2020,07,28,14,12,24.80
2020,07,28,14,13,24.80
2020,07,28,14,14,24.90
2020,07,28,14,15,24.90
2020,07,28,14,16,25.00
2020,07,28,14,17,25.00
2020,07,28,14,18,25.10
2020,07,28,14,19,25.10
2020,07,28,14,20,25.20
2020,07,28,14,21,25.20
2020,07,28,14,22,25.20
2020,07,28,14,23,25.30
2020,07,28,14,24,25.30
2020,07,28,14,25,25.40
2020,07,28,14,26,25.40
2020,07,28,14,27,25.50
2020,07,28,14,28,25.50
2020,07,28,14,29,25.60
2020,07,28,14,30,25.60
2020,07,28,14,31,25.60
2020,07,28,14,32,25.60
2020,07,28,14,33,25.60
2020,07,28,14,34,25.60
2020,07,28,14,35,25.70
2020,07,28,14,36,25.60
2020,07,28,14,37,25.50
2020,07,28,14,38,25.30
2020,07,28,14,39,25.20
2020,07,28,14,40,25.10
2020,07,28,14,41,25.10
2020,07,28,14,42,25.10
2020,07,28,14,43,25.10
2020,07,28,14,44,25.10
2020,07,28,14,45,25.10
2020,07,28,14,46,25.10
2020,07,28,14,47,25.10
2020,07,28,14,48,25.20
2020,07,28,14,49,25.30
2020,07,28,14,50,25.20
2020,07,28,14,51,25.10
2020,07,28,14,52,25.10
2020,07,28,14,53,25.00
2020,07,28,14,54,25.00
2020,07,28,14,55,24.90
2020,07,28,14,56,25.00
2020,07,28,14,57,25.10
2020,07,28,14,58,25.10
2020,07,28,14,59,25.20
2020,07,28,15,00,25.30
2020,07,28,15,01,25.30
2020,07,28,15,02,25.60
2020,07,28,15,03,25.60
2020,07,28,15,04,25.60
2020,07,28,15,05,25.30
2020,07,28,15,06,25.20
2020,07,28,15,07,25.00
2020,07,28,15,08,25.10
2020,07,28,15,09,25.10
2020,07,28,15,10,25.10
2020,07,28,15,11,25.20
2020,07,28,15,12,25.30
2020,07,28,15,13,25.50
2020,07,28,15,14,25.60
2020,07,28,15,15,25.70
2020,07,28,15,16,25.80
2020,07,28,15,17,25.90
2020,07,28,15,18,26.00
2020,07,28,15,19,26.10
2020,07,28,15,20,26.10
2020,07,28,15,21,26.10
2020,07,28,15,22,26.00
2020,07,28,15,23,26.00
2020,07,28,15,24,25.80
2020,07,28,15,25,25.80
2020,07,28,15,26,25.70
2020,07,28,15,27,25.80
2020,07,28,15,28,25.80
2020,07,28,15,29,25.90
2020,07,28,15,30,26.00
2020,07,28,15,31,26.00
2020,07,28,15,32,26.00
2020,07,28,15,33,26.00
2020,07,28,15,34,26.00
2020,07,28,15,35,26.00
2020,07,28,15,36,26.10
2020,07,28,15,37,26.10
2020,07,28,15,38,26.10
2020,07,28,15,39,26.10
2020,07,28,15,40,26.20
2020,07,28,15,41,26.30
2020,07,28,15,42,26.30
2020,07,28,15,43,26.20
2020,07,28,15,44,26.20
2020,07,28,15,45,26.20
2020,07,28,15,46,26.20
2020,07,28,15,47,26.10
2020,07,28,15,48,26.10
2020,07,28,15,49,26.10
2020,07,28,15,50,26.00
2020,07,28,15,51,25.90
2020,07,28,15,52,26.00
2020,07,28,15,53,26.00
2020,07,28,15,54,26.10
2020,07,28,15,55,26.00
2020,07,28,15,56,25.90
2020,07,28,15,57,25.90
2020,07,28,15,58,26.00
2020,07,28,15,59,26.00
2020,07,28,16,00,26.00
2020,07,28,16,01,25.90
2020,07,28,16,02,25.90
2020,07,28,16,03,25.80
2020,07,28,16,04,25.80
2020,07,28,16,05,25.80
2020,07,28,16,06,25.80
2020,07,28,16,07,25.70
2020,07,28,16,08,25.70
2020,07,28,16,09,25.70
2020,07,28,16,10,25.70
2020,07,28,16,11,25.70
2020,07,28,16,12,25.70
2020,07,28,16,13,25.70
2020,07,28,16,14,25.70
2020,07,28,16,15,25.80
2020,07,28,16,16,25.80
2020,07,28,16,17,25.80
2020,07,28,16,18,25.80
2020,07,28,16,19,25.80
2020,07,28,16,20,25.80
2020,07,28,16,21,25.70
2020,07,28,16,22,25.60
2020,07,28,16,23,25.50
2020,07,28,16,24,25.50
2020,07,28,16,25,25.40
2020,07,28,16,26,25.50
2020,07,28,16,27,25.50
2020,07,28,16,28,25.50
2020,07,28,16,29,25.50
2020,07,28,16,30,25.50
2020,07,28,16,31,25.50
2020,07,28,16,32,25.40
2020,07,28,16,33,25.40
2020,07,28,16,34,25.30
2020,07,28,16,35,25.20
2020,07,28,16,36,25.20
2020,07,28,16,37,25.20
2020,07,28,16,38,25.20
2020,07,28,16,39,25.30
2020,07,28,16,40,25.40
2020,07,28,16,41,25.50
2020,07,28,16,42,25.60
2020,07,28,16,43,25.60
2020,07,28,16,44,25.70
2020,07,28,16,45,25.60
2020,07,28,16,46,25.60
2020,07,28,16,47,25.50
2020,07,28,16,48,25.40
2020,07,28,16,49,25.40
2020,07,28,16,50,25.30
2020,07,28,16,51,25.40
2020,07,28,16,52,25.40
2020,07,28,16,53,25.50
2020,07,28,16,54,25.60
2020,07,28,16,55,25.70
2020,07,28,16,56,25.80
2020,07,28,16,57,25.80
2020,07,28,16,58,25.90
2020,07,28,16,59,25.90
2020,07,28,17,00,25.90
2020,07,28,17,01,26.00
2020,07,28,17,02,26.00
2020,07,28,17,03,26.10
2020,07,28,17,04,26.10
2020,07,28,17,05,25.90
2020,07,28,17,06,25.70
2020,07,28,17,07,25.60
2020,07,28,17,08,25.50
2020,07,28,17,09,25.50
2020,07,28,17,10,25.40
2020,07,28,17,11,25.40
2020,07,28,17,12,25.50
2020,07,28,17,13,25.50
2020,07,28,17,14,25.50
2020,07,28,17,15,25.50
2020,07,28,17,16,25.50
2020,07,28,17,17,25.50
2020,07,28,17,18,25.40
2020,07,28,17,19,25.30